QPF
0.00 0.00 0.00 0.00 0.00 0.00 0.00 0.00 0.00 0.00 0.00 0.00 0.00 0.00 0.00 0.00 0.00 0.00 0.00 0.00 0.00 0.00 0.00 0.00 0.00 0.00 0.00 0.00 0.00 0.00 0.00 0.00
0.00 0.00 0.00 0.00 0.00 0.00 0.00 0.00 0.00 0.00 0.00 0.00 0.00 0.00 0.00 0.00 0.00 0.00 0.00 0.00 0.00 0.00 0.00 0.00 0.00 0.00 0.00 0.00 0.00 0.00 0.00 0.00
0.00 0.00 0.00 0.00 0.00 0.00 0.00 0.00 0.00 0.00 0.00 0.00 0.00 0.00 0.00 0.00 0.00 0.00 0.00 0.00 0.00 0.00 0.00 0.00 0.00 0.00 0.00 0.00 0.00 0.00 0.00 0.00
0.00 0.00 0.00 0.00 0.00 0.00 0.00 0.00 0.00 0.00 0.00 0.00 0.00 0.00 0.00 0.00 0.00 0.00 0.00 0.00 0.00 0.00 0.00 0.00 0.00 0.00 0.00 0.00 0.00 0.00 0.00 0.00
0.00 0.00 0.00 0.00 0.00 0.00 0.00 0.00 0.00 0.00 0.00 0.00 0.00 0.00 0.00 0.00 0.00 0.00 0.00 0.00 0.00 0.00 0.00 0.00 0.00 0.00 0.00 0.00 0.00 0.00 0.00 0.00
0.00 0.00 0.00 0.00 0.00 0.00 0.00 0.00 0.00 0.00 0.00 0.00 0.00 0.00 0.00 0.00 0.00 0.00 0.00 0.00 0.00 0.00 0.00 0.00 0.00 0.00 0.00 0.00 0.00 0.00 0.00 0.00
0.00 0.00 0.00 0.00 0.00 0.00 0.00 0.00 0.00 0.00 0.00 0.00 0.00 0.00 0.00 0.00 0.00 0.00 0.00 0.00 0.00 0.00 0.00 0.00 0.00 0.00 0.00 0.00 0.00 0.00 0.00 0.00
0.00 0.00 0.00 0.00 0.00 0.00 0.00 0.00 0.00 0.00 0.00 0.00 0.00 0.00 0.00 0.00 0.00 0.00 0.00 0.00 0.00 0.00 0.00 0.00 0.00 0.00 0.00 0.00 0.00 0.00 0.00 0.00
0.00 0.00 0.00 0.00 0.00 0.00 0.00 0.00 0.00 0.00 0.00 0.00 0.00 0.00 0.00 0.00 0.00 0.00 0.00 0.00 0.00 0.00 0.00 0.00 0.00 0.00 0.00 0.00 0.00 0.00 0.00 0.00
0.00 0.00 0.00 0.00 0.00 0.00 0.00 0.00 0.00 0.00 0.00 0.00 0.00 0.00 0.00 0.00 0.00 0.00 0.00 0.00 0.00 0.00 0.00 0.00 0.00 0.00 0.00 0.00 0.00 0.00 0.00 0.00
0.00 0.00 0.00 0.00 0.00 0.00 0.00 0.00 0.00 0.00 0.00 0.00 0.00 0.00 0.00 0.00 0.00 0.00 0.00 0.00 0.00 0.00 0.00 0.00 0.00 0.00 0.00 0.00 0.00 0.00 0.00 0.00
0.00 0.00 0.00 0.00 0.00 0.00 0.00 0.00 0.00 0.00 0.00 0.00 0.00 0.00 0.00 0.00 0.00 0.00 0.00 0.00 0.00 0.00 0.00 0.00 0.00 0.00 0.00 0.00 0.00 0.00 0.00 0.00
0.00 0.00 0.00 0.00 0.00 0.00 0.00 0.00 0.00 0.00 0.00 0.00 0.00 0.00 0.00 0.00 0.00 0.00 0.00 0.00 0.00 0.00 0.00 0.00 0.00 0.00 0.00 0.00 0.00 0.00 0.00 0.00
0.00 0.00 0.00 0.00 0.00 0.00 0.00 0.00 0.00 0.00 0.00 0.00 0.00 0.00 0.00 0.00 0.00 0.00 0.00 0.00 0.00 0.00 0.00 0.00 0.00 0.00 0.00 0.00 0.00 0.00 0.00 0.00
0.00 0.00 0.00 0.00 0.00 0.00 0.00 0.00 0.00 0.00 0.00 0.00 0.00 0.00 0.00 0.00 0.00 0.00 0.00 0.00 0.00 0.00 0.00 0.00 0.00 0.00 0.00 0.00 0.00 0.00 0.00 0.00
0.00 0.00 0.00 0.00 0.00 0.00 0.00 0.00 0.00 0.00 0.00 0.00 0.00 0.00 0.00 0.00 0.00 0.00 0.00 0.00 0.00 0.00 0.00 0.00 0.00 0.00 0.00 0.00 0.00 0.00 0.00 0.00
0.00 0.00 0.00 0.00 0.00 0.00 0.00 0.00 0.00 0.00 0.00 0.00 0.00 0.00 0.00 0.00 0.00 0.00 0.00 0.00 0.00 0.00 0.00 0.00 0.00 0.00 0.00 0.00 0.00 0.00 0.00 0.00
0.00 0.00 0.00 0.00 0.00 0.00 0.00 0.00 0.00 0.00 0.00 0.00 0.00 0.00 0.00 0.00 0.00 0.00 0.00 0.00 0.00 0.00 0.00 0.00 0.00 0.00 0.00 0.00 0.00 0.00 0.00 0.00
0.00 0.00 0.00 0.00 0.00 0.00 0.00 0.00 0.00 0.00 0.00 0.00 0.00 0.00 0.00 0.00 0.00 0.00 0.00 0.00 0.00 0.00 0.00 0.00 0.00 0.00 0.00 0.00 0.00 0.00 0.00 0.00
0.00 0.00 0.00 0.00 0.00 0.00 0.00 0.00 0.00 0.00 0.00 0.00 0.00 0.00 0.00 0.00 0.00 0.00 0.00 0.00 0.00 0.00 0.00 0.00 0.00 0.00 0.00 0.00 0.00 0.00 0.00 0.00
MSLP
1018.70 1018.75 1018.93 1019.27 1019.54 1019.76 1019.91 1020.08 1020.33 1020.54 1020.74 1020.86 1020.89 1020.83 1020.81 1020.66 1020.56 1020.39 1020.14 1020.11 1020.07 1020.00 1020.04 1020.19 1020.27 1020.25 1020.15 1020.04 1019.87 1020.02 1020.27 1020.13
1019.00 1019.05 1019.21 1019.49 1019.66 1019.71 1019.90 1020.10 1020.33 1020.55 1020.73 1020.90 1021.09 1021.14 1021.05 1020.93 1020.81 1020.53 1020.39 1020.25 1020.16 1020.09 1020.24 1020.54 1020.75 1020.59 1020.42 1020.27 1020.23 1020.39 1020.43 1020.24
1019.16 1019.31 1019.52 1019.71 1019.93 1019.92 1019.87 1020.08 1020.27 1020.43 1020.67 1020.83 1021.28 1021.45 1021.36 1021.29 1021.03 1020.95 1020.89 1020.61 1020.48 1020.42 1020.73 1020.83 1021.01 1020.92 1020.72 1020.61 1020.62 1020.75 1020.59 1020.40
1019.40 1019.59 1019.70 1019.94 1019.86 1020.04 1020.13 1020.28 1020.45 1020.64 1020.82 1021.10 1021.28 1021.36 1021.16 1021.30 1021.28 1021.22 1021.28 1021.07 1020.89 1020.93 1021.02 1021.02 1021.16 1021.24 1021.20 1021.01 1021.03 1020.87 1020.73 1020.57
1019.47 1019.56 1019.65 1019.90 1019.97 1020.17 1020.34 1020.51 1020.62 1020.77 1020.90 1021.08 1021.24 1021.32 1021.32 1021.41 1021.51 1021.61 1021.67 1021.38 1021.50 1021.48 1021.47 1021.36 1021.28 1021.39 1021.37 1021.23 1021.11 1020.97 1020.89 1020.70
1019.04 1019.27 1019.39 1019.69 1019.96 1020.21 1020.32 1020.47 1020.68 1020.93 1021.01 1021.13 1021.44 1021.47 1021.51 1021.53 1021.55 1021.58 1021.63 1021.60 1021.62 1021.65 1021.63 1021.44 1021.40 1021.33 1021.31 1021.24 1021.16 1021.05 1020.94 1020.73
1018.81 1019.09 1019.22 1019.49 1019.85 1020.10 1020.31 1020.42 1020.61 1020.69 1020.85 1021.03 1021.18 1021.30 1021.46 1021.41 1021.38 1021.40 1021.45 1021.45 1021.56 1021.60 1021.71 1021.65 1021.44 1021.31 1021.30 1021.30 1021.18 1021.02 1020.90 1020.78
1018.52 1018.93 1019.10 1019.36 1019.60 1019.75 1019.88 1020.10 1020.25 1020.49 1020.57 1020.77 1020.81 1020.96 1021.18 1021.17 1021.20 1021.13 1021.15 1021.17 1021.25 1021.39 1021.49 1021.48 1021.42 1021.32 1021.27 1021.23 1021.12 1020.99 1020.86 1020.70
1018.53 1018.93 1019.14 1019.23 1019.27 1019.44 1019.69 1019.85 1020.00 1020.43 1020.40 1020.44 1020.56 1020.58 1020.76 1020.74 1020.93 1020.97 1020.77 1020.82 1020.95 1021.13 1021.17 1021.31 1021.38 1021.26 1021.27 1021.10 1020.94 1020.75 1020.64 1020.46
1018.24 1018.65 1018.96 1019.15 1019.35 1019.50 1019.60 1019.79 1019.95 1020.11 1020.20 1020.14 1020.04 1020.06 1020.29 1020.50 1020.69 1020.74 1020.47 1020.53 1020.67 1020.81 1021.05 1021.25 1021.30 1021.28 1021.19 1020.99 1020.81 1020.59 1020.31 1020.08
1018.59 1019.14 1019.55 1019.72 1019.61 1019.66 1019.85 1019.84 1020.03 1020.00 1019.83 1019.84 1019.86 1020.03 1020.09 1020.34 1020.41 1020.25 1020.17 1020.30 1020.49 1020.64 1020.81 1020.93 1021.12 1021.08 1020.98 1020.75 1020.59 1020.35 1019.94 1019.56
1019.04 1019.47 1019.79 1020.00 1020.17 1020.10 1020.08 1020.04 1020.12 1020.00 1019.78 1019.53 1019.50 1019.63 1019.68 1019.87 1019.96 1019.99 1020.04 1020.17 1020.25 1020.37 1020.43 1020.54 1020.66 1020.76 1020.73 1020.54 1020.30 1019.83 1019.49 1019.36
1019.51 1019.76 1020.11 1020.32 1020.38 1020.53 1020.55 1020.58 1020.25 1020.00 1019.72 1019.45 1019.44 1019.54 1019.54 1019.59 1019.66 1019.60 1019.52 1019.72 1019.56 1019.73 1020.02 1020.30 1020.52 1020.58 1020.82 1020.51 1020.03 1019.37 1019.18 1018.94
1019.82 1020.12 1020.34 1020.33 1020.38 1020.49 1020.43 1020.36 1020.16 1019.99 1019.75 1019.53 1019.29 1019.21 1019.12 1019.08 1018.96 1018.84 1018.76 1018.98 1019.10 1019.28 1019.62 1020.03 1020.20 1020.28 1020.74 1020.99 1020.57 1019.70 1019.14 1018.76
1020.41 1020.56 1020.54 1020.51 1020.46 1020.49 1020.47 1020.37 1020.20 1019.99 1019.59 1019.39 1018.98 1018.79 1018.68 1018.60 1018.41 1018.43 1018.44 1018.51 1018.68 1018.76 1019.05 1019.48 1019.81 1019.95 1019.97 1020.36 1020.64 1020.42 1019.99 1018.98
1020.70 1020.80 1020.81 1020.76 1020.58 1020.60 1020.74 1020.58 1020.43 1019.98 1019.62 1019.17 1019.04 1018.62 1018.32 1018.02 1017.80 1017.71 1017.66 1017.81 1017.99 1017.86 1017.94 1018.32 1018.87 1019.44 1019.87 1019.65 1019.55 1019.73 1020.16 1019.88
1021.20 1021.13 1021.03 1020.83 1020.80 1020.76 1020.62 1020.50 1020.23 1019.61 1019.53 1019.19 1018.49 1018.11 1017.82 1017.38 1017.17 1017.07 1016.98 1016.95 1016.93 1016.94 1017.14 1017.46 1017.75 1018.15 1018.45 1018.98 1019.39 1019.55 1019.69 1020.05
1021.49 1021.38 1021.15 1021.06 1020.91 1020.61 1020.42 1020.18 1019.86 1019.70 1019.10 1018.73 1018.26 1017.72 1017.33 1016.87 1016.27 1016.08 1015.93 1015.98 1016.00 1015.98 1016.13 1016.39 1016.64 1017.01 1017.29 1017.60 1018.00 1018.72 1019.27 1019.44
1021.74 1021.54 1021.37 1021.13 1020.77 1020.44 1020.14 1019.68 1019.51 1019.21 1018.71 1018.31 1017.70 1017.16 1016.63 1015.80 1015.32 1015.03 1014.88 1014.75 1014.93 1015.01 1015.36 1015.63 1015.70 1015.88 1016.26 1016.70 1017.14 1017.39 1018.02 1018.58
1021.87 1021.64 1021.41 1020.94 1020.55 1020.16 1019.78 1019.20 1019.11 1018.57 1017.97 1017.44 1016.92 1016.33 1015.55 1014.98 1014.58 1014.21 1013.89 1014.01 1014.18 1014.13 1013.93 1014.11 1014.47 1014.67 1015.08 1015.54 1016.23 1016.69 1017.17 1017.80
Thickness
5611 5607 5602 5597 5592 5588 5584 5581 5576 5572 5569 5566 5564 5563 5561 5560 5561 5561 5562 5562 5563 5564 5564 5564 5564 5568 5570 5572 5573 5574 5576 5581
5602 5598 5593 5589 5584 5580 5576 5572 5567 5563 5559 5557 5554 5552 5550 5549 5550 5551 5552 5552 5552 5553 5553 5552 5553 5555 5558 5562 5564 5564 5566 5571
5592 5587 5582 5578 5574 5571 5567 5562 5558 5554 5549 5547 5544 5542 5540 5539 5538 5538 5538 5539 5539 5541 5539 5540 5540 5543 5546 5549 5551 5555 5558 5562
5581 5576 5572 5568 5564 5560 5556 5553 5549 5544 5541 5537 5534 5532 5531 5528 5527 5526 5526 5526 5527 5527 5527 5529 5530 5532 5534 5537 5540 5543 5548 5551
5572 5569 5566 5560 5555 5551 5547 5543 5539 5534 5529 5526 5522 5520 5519 5516 5515 5514 5514 5514 5514 5514 5515 5517 5519 5520 5521 5524 5528 5532 5536 5542
5568 5563 5558 5553 5548 5544 5541 5536 5531 5526 5521 5516 5511 5510 5507 5506 5504 5503 5503 5503 5502 5502 5503 5505 5506 5508 5510 5513 5516 5521 5525 5530
5562 5557 5552 5547 5541 5537 5532 5527 5523 5519 5514 5508 5503 5501 5497 5495 5494 5493 5492 5492 5490 5491 5491 5491 5494 5496 5498 5500 5504 5509 5514 5519
5555 5550 5545 5540 5534 5528 5523 5518 5513 5508 5505 5498 5494 5491 5488 5485 5484 5482 5482 5481 5480 5479 5479 5479 5481 5484 5486 5488 5493 5497 5502 5508
5548 5542 5538 5532 5527 5521 5515 5509 5504 5499 5495 5491 5487 5484 5480 5477 5474 5472 5472 5471 5469 5468 5468 5467 5468 5470 5472 5476 5481 5486 5491 5498
5544 5539 5532 5525 5518 5512 5505 5500 5496 5491 5488 5486 5482 5478 5473 5469 5464 5461 5460 5459 5457 5457 5456 5454 5454 5455 5458 5463 5468 5474 5480 5488
5535 5525 5516 5509 5505 5501 5496 5492 5488 5484 5482 5478 5473 5467 5463 5459 5456 5453 5451 5448 5445 5444 5443 5442 5441 5443 5446 5450 5456 5462 5470 5477
5522 5513 5505 5499 5494 5492 5488 5484 5479 5475 5472 5469 5464 5459 5454 5449 5445 5442 5438 5435 5431 5429 5429 5430 5430 5431 5435 5439 5444 5452 5460 5467
5511 5504 5497 5491 5487 5481 5476 5470 5467 5463 5461 5457 5451 5445 5441 5437 5434 5432 5429 5425 5424 5419 5415 5414 5414 5415 5417 5423 5430 5441 5449 5457
5503 5496 5490 5485 5478 5472 5468 5462 5458 5453 5450 5444 5440 5436 5432 5427 5424 5422 5419 5414 5411 5406 5403 5399 5399 5398 5398 5400 5409 5422 5435 5445
5494 5488 5482 5476 5471 5465 5459 5453 5449 5443 5439 5435 5432 5427 5422 5418 5414 5410 5407 5403 5399 5395 5391 5387 5384 5384 5385 5384 5379 5394 5408 5427
5486 5480 5474 5469 5465 5457 5450 5443 5438 5435 5432 5429 5423 5420 5415 5412 5409 5407 5403 5398 5393 5389 5387 5382 5376 5374 5371 5374 5380 5381 5376 5396
5477 5472 5467 5463 5456 5449 5442 5437 5433 5431 5425 5421 5419 5416 5411 5409 5406 5399 5396 5392 5388 5384 5379 5373 5369 5366 5364 5359 5361 5367 5371 5373
5470 5465 5461 5455 5449 5444 5438 5433 5430 5424 5422 5417 5415 5412 5407 5405 5404 5400 5395 5389 5383 5377 5372 5366 5362 5357 5355 5352 5354 5357 5360 5367
5464 5459 5455 5449 5444 5438 5433 5433 5427 5422 5420 5415 5414 5412 5409 5408 5404 5399 5393 5386 5379 5370 5361 5354 5351 5347 5343 5341 5343 5348 5347 5355
5459 5455 5450 5445 5441 5437 5433 5433 5425 5423 5420 5417 5414 5412 5411 5408 5403 5397 5392 5382 5371 5362 5355 5347 5340 5336 5333 5330 5330 5336 5338 5344